CW0146 Weather Reports


Display with metric or nautical units.
time (UTC)temp
F
wind
direction
speed
MPH
gust
MPH
rain 1hr
in
rain 24hr
in
rain mn
in
humidity
%
barometer
mb
20260904010954 84 128 1.0 2.0 0.00 0.00 0.00 65 1012.0
20260904010454 85 90 2.0 3.0 0.00 0.00 0.00 65 1012.0
20260904005954 85 85 0.0 2.0 0.00 0.00 0.00 65 1012.0
20260904005455 85 89 2.0 5.0 0.00 0.00 0.00 65 1012.0
20260904004955 85 107 3.0 6.0 0.00 0.00 0.00 64 1012.0
20260904004455 85 125 3.0 6.0 0.00 0.00 0.00 64 1012.0
20260904003955 85 99 2.0 4.0 0.00 0.00 0.00 64 1012.0
20260904003455 86 133 2.0 4.0 0.00 0.00 0.00 65 1012.0
20260904002954 86 119 2.0 4.0 0.00 0.00 0.00 64 1012.0
20260904002455 87 86 2.0 4.0 0.00 0.00 0.00 63 1012.0
20260904001954 87 106 1.0 3.0 0.00 0.00 0.00 63 1012.0
20260904001454 87 88 1.0 4.0 0.00 0.00 0.00 62 1012.0
20260904000954 88 137 2.0 4.0 0.00 0.00 0.00 62 1012.0
20260904000455 88 114 1.0 2.0 0.00 0.00 0.00 62 1012.0
20260903235955 88 100 2.0 4.0 0.00 0.00 0.00 61 1012.0
20260903235455 89 155 2.0 4.0 0.00 0.00 0.00 61 1012.0
20260903234954 89 80 3.0 6.0 0.00 0.00 0.00 61 1012.0
20260903234454 89 87 3.0 7.0 0.00 0.00 0.00 60 1012.0
20260903233954 89 91 3.0 5.0 0.00 0.00 0.00 60 1012.0
20260903233010 89 116 2.0 4.0 0.00 0.00 0.00 60 1011.0
20260903232454 89 132 2.0 4.0 0.00 0.00 0.00 61 1011.0
20260903231954 90 86 2.0 6.0 0.00 0.00 0.00 62 1011.0
20260903231454 90 86 3.0 5.0 0.00 0.00 0.00 61 1011.0
20260903230954 91 82 2.0 4.0 0.00 0.00 0.00 61 1011.0
20260903230454 91 106 2.0 5.0 0.00 0.00 0.00 60 1011.0
20260903225954 92 137 3.0 4.0 0.00 0.00 0.00 59 1011.0
20260903225454 92 94 3.0 7.0 0.00 0.00 0.00 58 1011.0
20260903224955 92 110 3.0 5.0 0.00 0.00 0.00 58 1011.0
20260903224454 92 103 4.0 6.0 0.00 0.00 0.00 60 1011.0
20260903223955 93 92 4.0 8.0 0.00 0.00 0.00 61 1011.0
20260903223454 93 97 3.0 5.0 0.00 0.00 0.00 59 1011.0
20260903222954 93 91 2.0 5.0 0.00 0.00 0.00 58 1011.0
20260903222457 92 74 4.0 7.0 0.00 0.00 0.00 58 1011.0
20260903221955 92 85 4.0 8.0 0.00 0.00 0.00 59 1011.0
20260903221454 92 84 4.0 7.0 0.00 0.00 0.00 60 1011.0
20260903220954 92 85 4.0 7.0 0.00 0.00 0.00 59 1011.0
20260903220454 93 98 3.0 6.0 0.00 0.00 0.00 59 1011.0
20260903215954 94 99 3.0 6.0 0.00 0.00 0.00 57 1011.0
20260903215454 93 111 2.0 3.0 0.00 0.00 0.00 57 1011.0
20260903214954 93 87 2.0 5.0 0.00 0.00 0.00 58 1011.0
20260903214454 94 90 3.0 5.0 0.00 0.00 0.00 55 1011.0
20260903213954 94 108 2.0 4.0 0.00 0.00 0.00 53 1011.0
20260903213454 94 96 2.0 6.0 0.00 0.00 0.00 53 1011.0
20260903212954 94 119 2.0 4.0 0.00 0.00 0.00 54 1011.0
20260903212454 94 126 2.0 3.0 0.00 0.00 0.00 54 1011.0
20260903211954 94 88 3.0 5.0 0.00 0.00 0.00 54 1011.0
20260903211454 94 106 2.0 4.0 0.00 0.00 0.00 54 1011.0
20260903210954 94 131 2.0 3.0 0.00 0.00 0.00 53 1011.0
20260903210454 94 129 2.0 4.0 0.00 0.00 0.00 54 1011.0
20260903205954 95 76 3.0 4.0 0.00 0.00 0.00 52 1011.0
20260903205454 95 87 3.0 7.0 0.00 0.00 0.00 51 1011.0
20260903204955 95 84 2.0 4.0 0.00 0.00 0.00 51 1011.0
20260903204454 95 101 2.0 3.0 0.00 0.00 0.00 51 1011.0
20260903203954 95 111 1.0 4.0 0.00 0.00 0.00 51 1011.0
20260903203455 95 120 2.0 3.0 0.00 0.00 0.00 52 1012.0
20260903202954 96 90 3.0 6.0 0.00 0.00 0.00 52 1012.0
20260903202457 96 75 2.0 4.0 0.00 0.00 0.00 52 1012.0
20260903201954 96 78 2.0 4.0 0.00 0.00 0.00 51 1012.0
20260903201455 96 125 2.0 3.0 0.00 0.00 0.00 50 1012.0
20260903200954 96 87 3.0 6.0 0.00 0.00 0.00 49 1012.0
20260903200454 96 169 2.0 4.0 0.00 0.00 0.00 50 1012.0
20260903195954 96 134 2.0 3.0 0.00 0.00 0.00 51 1012.0
20260903195455 96 182 2.0 3.0 0.00 0.00 0.00 51 1012.0
20260903194955 96 147 2.0 3.0 0.00 0.00 0.00 51 1012.0
20260903194454 97 84 2.0 4.0 0.00 0.00 0.00 50 1012.0
20260903193954 97 76 3.0 6.0 0.00 0.00 0.00 49 1012.0
20260903193454 97 138 2.0 3.0 0.00 0.00 0.00 49 1012.0
20260903192955 96 106 2.0 4.0 0.00 0.00 0.00 50 1012.0
20260903192455 95 107 1.0 4.0 0.00 0.00 0.00 51 1012.0
20260903191954 95 91 1.0 2.0 0.00 0.00 0.00 52 1012.0
20260903191454 94 129 1.0 3.0 0.00 0.00 0.00 52 1012.0
20260903190955 94 95 1.0 2.0 0.00 0.00 0.00 51 1012.0
20260903190454 94 81 3.0 4.0 0.00 0.00 0.00 52 1012.0
20260903185955 94 118 2.0 3.0 0.00 0.00 0.00 51 1013.0
20260903185455 95 111 2.0 3.0 0.00 0.00 0.00 51 1013.0
20260903184955 95 86 2.0 5.0 0.00 0.00 0.00 51 1013.0
20260903184455 95 178 2.0 4.0 0.00 0.00 0.00 51 1013.0
20260903183954 95 136 2.0 4.0 0.00 0.00 0.00 52 1013.0
20260903183455 96 80 2.0 2.0 0.00 0.00 0.00 51 1013.0
20260903182955 97 90 2.0 5.0 0.00 0.00 0.00 49 1013.0
20260903182455 97 179 3.0 4.0 0.00 0.00 0.00 49 1013.0
20260903181956 97 149 2.0 4.0 0.00 0.00 0.00 50 1013.0
20260903181454 96 140 2.0 3.0 0.00 0.00 0.00 48 1013.0
20260903180955 96 139 2.0 4.0 0.00 0.00 0.00 49 1013.0
20260903180456 95 170 2.0 5.0 0.00 0.00 0.00 49 1013.0
20260903175954 94 115 1.0 2.0 0.00 0.00 0.00 52 1013.0
20260903175454 94 183 3.0 6.0 0.00 0.00 0.00 52 1013.0
20260903174955 93 173 1.0 3.0 0.00 0.00 0.00 53 1014.0
20260903174454 92 184 4.0 6.0 0.00 0.00 0.00 54 1014.0
20260903173954 92 174 2.0 5.0 0.00 0.00 0.00 58 1014.0
20260903173455 92 110 1.0 2.0 0.00 0.00 0.00 57 1014.0
20260903172507 92 110 2.0 3.0 0.00 0.00 0.00 57 1014.0
20260903171955 92 192 1.0 2.0 0.00 0.00 0.00 58 1014.0
20260903171454 92 178 3.0 5.0 0.00 0.00 0.00 58 1014.0
20260903170954 92 160 2.0 5.0 0.00 0.00 0.00 58 1014.0
20260903170455 91 147 2.0 3.0 0.00 0.00 0.00 59 1014.0
20260903165955 91 167 2.0 5.0 0.00 0.00 0.00 59 1014.0
20260903165455 90 193 2.0 5.0 0.00 0.00 0.00 59 1014.0
20260903164955 90 169 3.0 4.0 0.00 0.00 0.00 59 1014.0
20260903164455 90 171 5.0 8.0 0.00 0.00 0.00 59 1014.0
20260903163956 90 168 3.0 5.0 0.00 0.00 0.00 61 1014.0
20260903163454 90 161 2.0 5.0 0.00 0.00 0.00 61 1014.0
20260903162955 90 193 3.0 4.0 0.00 0.00 0.00 62 1014.0
20260903162454 89 168 4.0 6.0 0.00 0.00 0.00 62 1014.0
20260903161954 89 176 3.0 6.0 0.00 0.00 0.00 62 1014.0
20260903161454 89 185 5.0 7.0 0.00 0.00 0.00 62 1014.0
20260903160955 89 171 3.0 5.0 0.00 0.00 0.00 62 1014.0
20260903160454 89 177 4.0 9.0 0.00 0.00 0.00 62 1014.0
20260903155954 89 180 4.0 7.0 0.00 0.00 0.00 62 1014.0
20260903155454 89 174 4.0 7.0 0.00 0.00 0.00 62 1014.0
20260903154954 88 206 2.0 6.0 0.00 0.00 0.00 65 1014.0
20260903154454 87 195 2.0 4.0 0.00 0.00 0.00 66 1014.0
20260903153954 87 165 3.0 6.0 0.00 0.00 0.00 66 1014.0
20260903153454 87 164 6.0 10.0 0.00 0.00 0.00 67 1014.0
20260903152954 87 178 4.0 6.0 0.00 0.00 0.00 67 1014.0
20260903152454 87 182 4.0 7.0 0.00 0.00 0.00 68 1014.0
20260903151955 86 170 2.0 6.0 0.00 0.00 0.00 68 1014.0
20260903151454 86 173 4.0 9.0 0.00 0.00 0.00 68 1014.0
20260903150954 86 177 5.0 9.0 0.00 0.00 0.00 68 1014.0
20260903150455 86 176 5.0 9.0 0.00 0.00 0.00 68 1014.0
20260903145958 85 184 4.0 9.0 0.00 0.00 0.00 70 1014.0
20260903145454 85 182 3.0 6.0 0.00 0.00 0.00 70 1014.0
20260903144954 85 176 3.0 6.0 0.00 0.00 0.00 71 1014.0
20260903144454 84 178 4.0 6.0 0.00 0.00 0.00 74 1014.0
20260903143954 84 174 3.0 7.0 0.00 0.00 0.00 74 1014.0
20260903143456 84 163 4.0 7.0 0.00 0.00 0.00 74 1014.0
20260903142954 84 185 3.0 6.0 0.00 0.00 0.00 75 1014.0
20260903142455 84 173 4.0 7.0 0.00 0.00 0.00 75 1014.0
20260903141954 84 178 5.0 10.0 0.00 0.00 0.00 74 1014.0
20260903141454 84 182 4.0 8.0 0.00 0.00 0.00 75 1014.0
20260903140955 83 165 4.0 7.0 0.00 0.00 0.00 76 1014.0
20260903140454 83 191 4.0 6.0 0.00 0.00 0.00 77 1014.0
20260903135954 83 203 2.0 4.0 0.00 0.00 0.00 78 1014.0
20260903135456 83 177 3.0 5.0 0.00 0.00 0.00 78 1014.0
20260903134954 82 178 4.0 8.0 0.00 0.00 0.00 79 1014.0
20260903134455 82 185 2.0 5.0 0.00 0.00 0.00 81 1014.0
20260903133954 82 162 2.0 5.0 0.00 0.00 0.00 82 1014.0
20260903133454 82 168 2.0 4.0 0.00 0.00 0.00 82 1014.0
20260903132954 81 175 3.0 4.0 0.00 0.00 0.00 83 1014.0
20260903132501 81 176 2.0 3.0 0.00 0.00 0.00 83 1014.0
20260903131954 81 189 2.0 4.0 0.00 0.00 0.00 83 1014.0
20260903131456 81 177 3.0 5.0 0.00 0.00 0.00 83 1014.0
20260903130954 81 177 4.0 6.0 0.00 0.00 0.00 84 1014.0
20260903130458 81 173 4.0 5.0 0.00 0.00 0.00 83 1014.0
20260903125956 81 173 3.0 5.0 0.00 0.00 0.00 84 1014.0
20260903125454 81 189 3.0 6.0 0.00 0.00 0.00 84 1014.0
20260903124955 81 178 3.0 5.0 0.00 0.00 0.00 84 1014.0
20260903124456 81 184 3.0 5.0 0.00 0.00 0.00 84 1014.0
20260903123954 81 176 3.0 6.0 0.00 0.00 0.00 84 1014.0
20260903123454 80 184 2.0 5.0 0.00 0.00 0.00 85 1014.0
20260903122954 80 180 2.0 4.0 0.00 0.00 0.00 85 1014.0
20260903122454 80 177 3.0 5.0 0.00 0.00 0.00 85 1014.0
20260903121955 80 179 5.0 9.0 0.00 0.00 0.00 85 1013.0
20260903121455 80 183 3.0 6.0 0.00 0.00 0.00 85 1014.0
20260903120954 80 183 3.0 5.0 0.00 0.00 0.00 85 1014.0
20260903120454 80 180 4.0 6.0 0.00 0.00 0.00 85 1014.0
20260903115955 80 171 3.0 4.0 0.00 0.00 0.00 85 1014.0
20260903115455 80 179 4.0 5.0 0.00 0.00 0.00 85 1014.0
20260903114954 80 171 3.0 5.0 0.00 0.00 0.00 85 1014.0
20260903114454 80 173 3.0 7.0 0.00 0.00 0.00 85 1014.0
20260903113956 80 186 3.0 6.0 0.00 0.00 0.00 85 1013.0
20260903113455 80 158 1.0 3.0 0.00 0.00 0.00 85 1014.0
20260903112954 80 161 5.0 9.0 0.00 0.00 0.00 85 1013.0
20260903112454 80 184 2.0 4.0 0.00 0.00 0.00 85 1013.0
20260903111955 80 176 3.0 5.0 0.00 0.00 0.00 85 1013.0
20260903111454 80 183 3.0 6.0 0.00 0.00 0.00 85 1013.0
20260903110954 80 181 4.0 9.0 0.00 0.00 0.00 85 1013.0
20260903110455 80 180 2.0 6.0 0.00 0.00 0.00 85 1013.0
20260903105954 80 185 3.0 7.0 0.00 0.00 0.00 86 1013.0
20260903105454 80 187 5.0 8.0 0.00 0.00 0.00 86 1013.0
20260903104954 80 189 3.0 5.0 0.00 0.00 0.00 86 1013.0
20260903104454 80 160 2.0 4.0 0.00 0.00 0.00 86 1013.0
20260903103954 80 184 4.0 7.0 0.00 0.00 0.00 86 1013.0
20260903103454 80 169 3.0 5.0 0.00 0.00 0.00 86 1013.0
20260903102954 80 174 5.0 9.0 0.00 0.00 0.00 86 1013.0
20260903102454 80 179 3.0 6.0 0.00 0.00 0.00 86 1013.0
20260903101954 80 184 3.0 6.0 0.00 0.00 0.00 86 1013.0
20260903101454 80 179 3.0 7.0 0.00 0.00 0.00 85 1013.0
20260903100956 80 157 4.0 8.0 0.00 0.00 0.00 85 1013.0
20260903100454 80 174 3.0 5.0 0.00 0.00 0.00 85 1013.0
20260903095954 80 179 4.0 6.0 0.00 0.00 0.00 85 1013.0
20260903095455 80 189 2.0 4.0 0.00 0.00 0.00 85 1013.0
20260903094954 80 172 4.0 6.0 0.00 0.00 0.00 85 1013.0
20260903094454 80 154 2.0 4.0 0.00 0.00 0.00 85 1013.0
20260903093954 80 181 3.0 6.0 0.00 0.00 0.00 85 1013.0
20260903093455 80 174 3.0 6.0 0.00 0.00 0.00 85 1013.0
20260903092956 81 179 4.0 7.0 0.00 0.00 0.00 84 1013.0
20260903092454 81 196 4.0 6.0 0.00 0.00 0.00 84 1013.0
20260903091954 81 186 2.0 7.0 0.00 0.00 0.00 84 1013.0
20260903091454 81 185 2.0 8.0 0.00 0.00 0.00 84 1013.0
20260903090955 81 176 3.0 5.0 0.00 0.00 0.00 84 1013.0
20260903090455 81 181 4.0 6.0 0.00 0.00 0.00 84 1013.0
20260903085954 81 179 3.0 6.0 0.00 0.00 0.00 84 1013.0
20260903085454 81 171 3.0 9.0 0.00 0.00 0.00 84 1013.0
20260903084954 81 182 2.0 4.0 0.00 0.00 0.00 84 1013.0
20260903084454 81 182 4.0 8.0 0.00 0.00 0.00 83 1013.0
20260903083954 81 169 3.0 5.0 0.00 0.00 0.00 83 1013.0
20260903083455 81 185 2.0 5.0 0.00 0.00 0.00 83 1013.0
20260903082954 81 177 3.0 5.0 0.00 0.00 0.00 83 1013.0
20260903082454 81 183 2.0 4.0 0.00 0.00 0.00 83 1013.0
20260903081955 81 172 3.0 7.0 0.00 0.00 0.00 83 1013.0
20260903081454 81 183 3.0 5.0 0.00 0.00 0.00 83 1013.0
20260903080954 81 175 3.0 6.0 0.00 0.00 0.00 83 1013.0
20260903080454 81 189 3.0 7.0 0.00 0.00 0.00 82 1013.0
20260903075954 81 169 2.0 3.0 0.00 0.00 0.00 82 1013.0
20260903075456 81 186 3.0 6.0 0.00 0.00 0.00 82 1013.0
20260903074956 81 160 3.0 6.0 0.00 0.00 0.00 81 1013.0
20260903074455 81 173 3.0 8.0 0.00 0.00 0.00 81 1013.0
20260903073954 81 197 2.0 3.0 0.00 0.00 0.00 81 1013.0
20260903073455 81 182 2.0 6.0 0.00 0.00 0.00 80 1013.0
20260903072955 81 185 3.0 6.0 0.00 0.00 0.00 80 1013.0
20260903072455 81 171 1.0 3.0 0.00 0.00 0.00 80 1014.0
20260903071956 81 144 2.0 4.0 0.00 0.00 0.00 80 1014.0
20260903071455 81 182 2.0 5.0 0.00 0.00 0.00 80 1014.0
20260903070954 81 188 2.0 4.0 0.00 0.00 0.00 79 1014.0
20260903070454 81 159 1.0 5.0 0.00 0.00 0.00 79 1014.0
20260903065954 81 190 1.0 3.0 0.00 0.00 0.00 79 1014.0
20260903065455 81 122 1.0 2.0 0.00 0.00 0.00 79 1014.0
20260903064954 81 129 0.0 1.0 0.00 0.00 0.00 79 1014.0
20260903064456 81 182 1.0 3.0 0.00 0.00 0.00 79 1014.0
20260903063955 81 152 1.0 3.0 0.00 0.00 0.00 79 1014.0
20260903063456 81 172 0.0 1.0 0.00 0.00 0.00 79 1014.0
20260903062955 81 175 0.0 2.0 0.00 0.00 0.00 79 1014.0
20260903062454 81 147 2.0 4.0 0.00 0.00 0.00 79 1014.0
20260903061954 81 176 1.0 2.0 0.00 0.00 0.00 79 1014.0
20260903061456 81 185 1.0 3.0 0.00 0.00 0.00 79 1014.0
20260903060955 81 139 1.0 1.0 0.00 0.00 0.00 79 1014.0
20260903060454 81 156 1.0 2.0 0.00 0.00 0.00 79 1014.0
20260903055954 81 173 1.0 4.0 0.00 0.00 0.00 79 1014.0
20260903055454 81 134 1.0 3.0 0.00 0.00 0.00 79 1014.0
20260903054955 81 120 1.0 2.0 0.00 0.00 0.00 79 1014.0
20260903054454 81 180 1.0 4.0 0.00 0.00 0.00 79 1014.0
20260903053955 80 107 2.0 5.0 0.00 0.00 0.00 79 1014.0
20260903053455 80 151 1.0 4.0 0.00 0.00 0.00 80 1014.0
20260903052956 80 132 1.0 2.0 0.00 0.00 0.00 80 1014.0
20260903052454 80 96 1.0 2.0 0.00 0.00 0.00 80 1014.0
20260903051954 80 118 1.0 2.0 0.00 0.00 0.00 80 1014.0
20260903051454 80 111 0.0 2.0 0.00 0.00 0.00 80 1014.0
20260903050954 80 166 1.0 2.0 0.00 0.00 0.00 80 1014.0
20260903050454 80 103 2.0 4.0 0.00 0.00 0.00 80 1014.0
20260903050001 80 154 1.0 4.0 0.00 0.00 0.08 80 1014.0
20260903045454 80 97 2.0 3.0 0.00 0.00 0.08 80 1014.0
20260903044955 80 215 0.0 2.0 0.00 0.00 0.08 80 1014.0
20260903044454 80 97 1.0 3.0 0.00 0.00 0.08 80 1014.0
20260903043957 80 85 1.0 2.0 0.00 0.00 0.08 80 1014.0
20260903043454 80 93 1.0 2.0 0.00 0.00 0.08 80 1014.0
20260903042955 80 146 0.0 2.0 0.00 0.00 0.08 79 1014.0
20260903042454 80 113 1.0 3.0 0.00 0.00 0.08 79 1014.0
20260903041954 81 89 1.0 2.0 0.00 0.00 0.08 78 1014.0
20260903041455 81 97 1.0 2.0 0.00 0.00 0.08 77 1014.0
20260903040954 81 137 0.0 1.0 0.00 0.00 0.08 76 1014.0
20260903040455 82 105 1.0 3.0 0.00 0.00 0.08 75 1014.0
20260903035955 82 83 1.0 2.0 0.00 0.00 0.08 74 1014.0
20260903035455 82 94 2.0 4.0 0.00 0.00 0.08 73 1014.0
20260903034955 82 90 2.0 5.0 0.00 0.00 0.08 72 1014.0
20260903034455 83 85 2.0 4.0 0.00 0.00 0.08 71 1014.0
20260903033954 83 90 2.0 5.0 0.00 0.00 0.08 69 1014.0
20260903033456 84 86 3.0 6.0 0.00 0.00 0.08 68 1014.0
20260903032954 84 81 3.0 6.0 0.00 0.00 0.08 67 1014.0
20260903032456 84 100 1.0 2.0 0.00 0.00 0.08 66 1014.0
20260903031954 85 88 3.0 6.0 0.00 0.00 0.08 66 1014.0
20260903031455 85 87 3.0 5.0 0.00 0.00 0.08 65 1013.0
20260903030954 86 96 2.0 6.0 0.00 0.00 0.08 63 1013.0
20260903030459 86 92 2.0 3.0 0.00 0.00 0.08 63 1013.0
20260903025955 86 86 2.0 6.0 0.00 0.00 0.08 62 1013.0
20260903025455 86 74 1.0 2.0 0.00 0.00 0.08 61 1013.0
20260903024954 87 98 1.0 2.0 0.00 0.00 0.08 58 1013.0
20260903024454 87 92 1.0 4.0 0.00 0.00 0.08 58 1013.0
20260903023954 87 82 0.0 1.0 0.00 0.00 0.08 58 1013.0
20260903023454 87 79 1.0 2.0 0.00 0.00 0.08 57 1012.0
20260903022954 87 72 1.0 2.0 0.00 0.00 0.08 57 1012.0
20260903022455 87 157 2.0 2.0 0.00 0.00 0.08 57 1012.0
20260903021954 87 95 1.0 2.0 0.00 0.00 0.08 57 1012.0
20260903021454 87 67 0.0 0.0 0.00 0.00 0.08 58 1012.0
20260903020954 87 106 0.0 1.0 0.00 0.00 0.08 59 1012.0
20260903020457 87 99 0.0 0.0 0.00 0.00 0.08 57 1012.0
20260903015956 88 145 0.0 2.0 0.00 0.00 0.08 57 1012.0
20260903015454 88 107 1.0 2.0 0.00 0.00 0.08 55 1012.0
20260903014954 88 112 1.0 2.0 0.00 0.00 0.08 56 1012.0
20260903014454 88 101 0.0 1.0 0.00 0.00 0.08 56 1012.0
20260903013956 88 88 0.0 1.0 0.00 0.00 0.08 56 1012.0
20260903013454 88 90 0.0 1.0 0.00 0.00 0.08 56 1011.0
20260903012954 89 96 1.0 2.0 0.00 0.00 0.08 55 1012.0
20260903012454 89 97 0.0 1.0 0.00 0.00 0.08 56 1012.0
20260903011955 89 109 0.0 1.0 0.00 0.00 0.08 56 1012.0
20260903011455 89 90 0.0 1.0 0.00 0.00 0.08 56 1012.0